SPACEBEE-27 (46950 NORAD) Tracking and Keplerian Element Data

This shows tracking and keplerian element data for the satellite.

Feedback or suggestion? Click here.




ElementValue
Catalog46950
NameSPACEBEE-27
Epoch Orbit893
Epoch Day17.88966382
Epoch Year2021
RAAN157.2467
Inclination97.3733
Eccentricity0.0016527
Argument of Perigee103.9314
Mean Anonmoly256.376
Mean Motion15.20941821
Decay Rate3.886E-05
L11 46950U 20085X 21017.88966382 .00003886 00000-0 17806-3 0 9990
L22 46950 97.3733 157.2467 0016527 103.9314 256.3760 15.20941821 8934

Live tracking and technical data element details for SPACEBEE-27 (NORAD 46950). SPACEBEE-27 can be tracked NOW for your location showing map with azimuth and elevation plus other details from your city location.

Track the satellite on the map from your city or location and see movement details for azimuth, elevation, latitude, longitude, range, height, and movement on the map or in text.







IsCatalogInMostPopularTable: catalog: 46950, numindb: 19
Update: records affected: 1



GetName: 46950 SPACEBEE-27

Hit Count: updated at: Mon, 18 Jan 2021 16:10:34 GMT